SCP
0 0 0 0 0 0 0 0 0 0 0 0 0 0 0 0 0 0 0 0 0 0 0 0 0 0 0 0 0 0 0 0 0 0 0 0 0 0 0 0 0 0 0 0 0 0 0 0 0
0 0 0 0 0 0 0 0 0 0 0 0 0 0 0 0 0 0 0 0 0 0 0 0 0 0 0 0 0 0 0 0 0 0 0 0 0 0 0 0 0 0 0 0 0 0 0 0 0
0 0 0 0 0 0 0 0 0 0 0 0 0 0 0 0 0 0 0 0 0 0 0 0 0 0 0 0 0 0 0 0 0 0 0 0 0 0 0 0 0 0 0 0 0 0 0 0 0
0 0 0 0 0 0 0 0 0 0 0 0 0 0 0 0 0 0 0 0 0 0 0 0 0 0 0 0 0 0 0 0 0 0 0 0 0 0 0 0 0 0 0 0 0 0 0 0 0
0 0 0 0 0 0 0 0 0 0 0 0 0 0 0 0 0 0 0 0 0 0 0 0 0 0 0 0 0 0 0 0 0 0 0 0 0 0 0 0 0 0 0 0 0 0 0 0 0
0 0 0 0 0 0 0 0 0 0 0 0 0 0 0 0 0 0 0 0 0 0 0 0 0 0 0 0 0 0 0 0 0 0 0 0 0 0 0 0 0 0 0 0 0 0 0 0 0
0 0 0 0 0 0 0 0 0 0 0 0 0 0 0 0 0 0 0 0 0 0 0 0 0 0 0 0 0 0 0 0 0 0 0 0 0 0 0 0 0 0 0 0 0 0 0 0 0
0 0 0 0 0 0 0 0 0 0 0 0 0 0 0 0 0 0 0 0 0 0 0 0 0 0 0 0 0 0 0 0 0 0 0 0 0 0 0 0 0 0 0 0 0 0 0 0 0
0 0 0 0 0 0 0 0 0 0 0 0 0 0 0 0 0 0 0 0 0 0 0 0 0 0 0 0 0 0 0 0 0 0 0 0 0 0 0 0 0 0 0 0 0 0 0 0 0
0 0 0 0 0 0 0 0 0 0 0 0 0 0 0 0 0 0 0 0 0 0 0 0 0 0 0 0 0 0 0 0 0 0 0 0 0 0 0 0 0 0 0 0 0 0 0 0 0
0 0 0 0 0 0 0 0 0 0 0 0 0 0 0 0 0 0 0 0 0 0 0 0 0 0 0 0 0 0 0 0 0 0 0 0 0 0 0 0 0 0 0 0 0 0 0 0 0
0 0 0 0 0 0 0 0 0 0 0 0 0 0 0 0 0 0 0 0 0 0 0 0 0 0 0 0 0 0 0 0 0 0 0 0 0 0 0 0 0 0 0 0 0 0 0 0 0
0 0 0 0 0 0 0 0 0 0 0 0 0 0 0 0 0 0 0 0 0 0 0 0 0 0 0 0 0 0 0 0 0 0 0 0 0 0 0 0 0 0 0 0 0 0 0 0 0
0 0 0 0 0 0 0 0 0 0 0 0 0 0 0 0 0 0 0 0 0 0 0 0 0 0 0 0 0 0 0 0 0 0 0 0 0 0 0 0 0 0 0 0 0 0 0 0 0
0 0 0 0 0 0 0 0 0 0 0 0 0 0 0 0 0 0 0 0 0 0 0 0 0 0 0 0 0 0 0 0 0 0 0 0 0 0 0 0 0 0 0 0 0 0 0 0 0
0 0 0 0 0 0 0 0 0 0 0 0 0 0 0 0 0 0 0 0 0 0 0 0 0 0 0 0 0 0 0 0 0 0 0 0 0 0 0 0 0 0 0 0 0 0 0 0 0
0 0 0 0 0 0 0 0 0 0 0 0 0 0 0 0 0 0 0 0 0 0 0 0 0 0 0 0 0 0 0 0 0 0 0 0 0 0 0 0 0 0 0 0 0 0 0 0 0
0 0 0 0 0 0 0 0 0 0 0 0 0 0 0 0 0 0 0 0 0 0 0 0 0 0 0 0 0 0 0 0 0 0 0 0 0 0 0 0 0 0 0 0 0 0 0 0 0
0 0 0 0 0 0 0 0 0 0 0 0 0 0 0 0 0 0 0 0 0 0 0 0 0 0 0 0 0 0 0 0 0 0 0 0 0 0 0 0 0 0 0 0 0 0 0 0 0
0 0 0 0 0 0 0 0 0 0 0 0 0 0 0 0 0 0 0 0 0 0 0 0 0 0 0 0 0 0 0 0 0 0 0 0 0 0 0 0 0 0 0 0 0 0 0 0 0
0 0 0 0 0 0 0 0 0 0 0 0 0 0 0 0 -0 -0 -0 0 0 0 0 0 0 0 0 0 0 0 0 0 0 0 0 0 0 0 0 0 0 0 0 0 0 0 0 0 0
0 0 0 0 0 0 0 0 0 0 0 0 0 0 0 0 -0 -0 -0 -0 0 0 0 0 0 0 0 0 0 0 0 0 0 0 0 0 0 0 0 0 0 0 0 0 0 0 0 0 0
0 0 0 0 0 0 0 0 0 0 0 0 0 0 0 0 -0 -0 -0 -0 0 0 0 0 0 0 0 0 0 0 0 0 0 0 0 0 0 0 0 0 0 0 0 0 0 0 0 0 0
0 0 0 0 0 0 0 0 0 0 0 0 0 0 0 0 0 -0 -0 -0 0 0 0 0 0 0 0 0 0 0 0 0 0 0 0 0 0 0 0 0 0 0 0 0 0 0 0 0 0
0 0 0 0 0 0 0 0 0 0 0 0 0 0 0 0 0 0 0 0 0 0 0 0 0 0 0 0 0 0 0 0 0 0 0 0 0 0 0 0 0 0 0 0 0 0 0 0 0
0 0 0 0 0 0 0 0 0 0 0 0 0 0 0 0 0 0 0 0 0 0 0 0 0 0 0 0 0 0 0 0 0 0 0 0 0 0 0 0 0 0 0 0 0 0 0 0 0
0 0 0 0 0 0 0 0 0 0 0 0 0 0 0 0 0 0 0 0 0 0 0 0 0 0 0 0 0 0 0 0 0 0 0 0 0 0 0 0 0 0 0 0 0 0 0 0 0
0 0 0 0 0 0 0 0 0 0 0 0 0 0 0 0 0 0 0 0 0 0 0 0 0 0 0 0 0 0 0 0 0 0 0 0 0 0 0 0 0 0 0 0 0 0 0 0 0
0 0 0 0 0 0 0 0 0 0 0 0 0 0 0 0 0 0 0 0 0 0 0 0 0 0 0 0 0 0 0 0 0 0 0 0 0 0 0 0 0 0 0 0 0 0 0 0 0
0 0 0 0 0 0 0 0 0 0 0 0 0 0 0 0 0 0 0 0 0 0 0 0 0 0 0 0 0 0 0 0 0 0 0 0 0 0 0 0 0 0 0 0 0 0 0 0 0
Wind_Speed
6 3 3 4 6 4 2 3 2 1 0 1 1 3 5 4 4 3 1 2 3 2 2 1 5 8 9 10 10 10 11 11 11 11 12 12 12 13 13 13 13 13 13 14 14 14 15 14 14
2 2 5 5 5 2 3 3 2 2 3 2 3 3 4 3 2 2 2 3 3 3 3 3 7 8 9 10 10 10 10 10 11 11 11 12 12 12 12 12 13 13 13 14 14 14 13 13 13
1 4 5 4 3 5 4 3 3 0 1 2 3 3 2 2 1 1 1 2 3 4 4 4 9 9 10 10 10 10 10 9 10 10 10 11 11 11 12 12 12 12 13 13 12 13 12 12 13
3 5 5 4 3 3 3 1 2 2 2 3 3 3 2 2 1 1 2 3 4 4 4 4 8 9 10 10 10 10 9 9 9 10 10 10 10 11 11 11 11 11 12 12 12 12 12 12 12
4 4 4 1 3 2 1 1 2 2 1 2 3 3 1 2 3 4 3 4 5 5 5 4 8 9 9 9 9 9 10 10 10 10 10 10 10 10 10 10 10 10 10 11 11 11 11 11 11
5 4 3 3 3 2 1 1 1 2 1 2 3 3 1 2 3 3 4 4 5 5 5 5 7 8 8 9 9 9 9 9 10 10 10 9 10 10 10 10 10 9 10 10 10 10 10 10 11
5 4 3 3 2 2 1 0 2 2 2 1 2 4 1 1 2 3 4 5 5 6 6 5 5 6 7 8 9 9 9 9 10 10 10 9 9 9 10 9 9 9 10 10 10 10 10 10 10
4 5 2 2 3 3 0 1 1 2 2 1 2 4 2 1 2 4 5 5 5 6 6 5 5 5 5 5 8 9 9 9 9 10 10 10 9 9 9 8 9 9 9 9 9 9 9 9 9
3 4 3 4 4 3 1 2 2 2 4 2 2 1 1 5 5 5 4 4 4 5 5 5 5 5 5 5 6 7 8 8 8 7 9 8 4 4 5 7 9 9 9 9 9 9 9 9 9
4 3 5 2 2 2 1 2 1 3 3 2 2 3 4 6 5 5 4 3 2 3 4 4 4 4 4 4 4 4 4 5 5 4 4 3 3 4 5 7 9 9 9 9 9 10 9 7 4
3 4 2 0 0 1 2 1 2 3 1 1 2 3 5 5 4 3 3 3 2 2 3 3 3 3 4 3 3 3 3 3 4 4 4 3 3 3 3 3 4 5 6 4 5 5 4 4 3
3 1 1 0 1 1 1 2 1 1 1 1 2 5 5 5 4 3 3 2 2 2 2 2 3 3 3 3 3 3 3 3 3 3 3 3 2 3 2 2 2 3 2 3 3 2 3 4 4
2 0 1 1 2 2 3 2 1 1 1 2 5 6 5 4 3 1 1 2 2 2 2 2 2 3 3 3 3 3 3 3 2 3 3 3 2 2 2 2 2 2 2 2 2 2 3 3 3
2 1 1 1 1 1 2 1 1 1 2 4 5 4 3 2 2 2 2 1 1 1 1 1 2 2 3 3 3 3 2 2 2 2 3 3 2 2 2 2 2 2 2 2 2 2 2 2 2
2 2 2 1 1 0 2 3 2 2 3 3 3 2 2 2 3 2 2 1 1 1 1 1 2 2 3 3 3 2 2 2 2 2 3 3 3 2 2 1 1 1 1 2 2 2 2 2 2
2 2 1 2 1 1 2 5 2 2 4 3 2 2 2 2 2 2 3 3 1 2 2 2 2 2 3 2 2 2 2 2 2 2 2 3 3 2 2 2 1 1 1 1 2 2 2 2 1
2 1 2 3 1 1 2 5 2 0 3 3 2 2 1 1 2 2 2 2 2 2 2 3 3 2 2 2 2 2 2 2 2 2 2 2 3 2 2 1 1 1 1 1 1 1 1 1 1
2 2 2 3 2 0 3 6 4 1 2 3 2 2 2 2 1 0 1 2 2 2 3 3 3 3 2 2 2 2 3 2 2 2 2 3 2 2 2 1 2 1 1 1 1 1 1 1 1
2 2 3 3 1 1 5 7 7 3 2 3 3 4 4 3 1 1 1 1 2 3 3 3 3 3 3 1 1 1 1 1 1 1 2 2 2 2 2 1 1 1 1 0 1 1 1 1 1
2 2 2 3 3 1 4 7 6 3 3 3 4 4 4 3 1 1 1 1 2 2 2 2 2 1 2 2 1 0 1 0 0 1 2 2 2 2 1 1 1 1 1 1 0 1 1 0 1
2 3 3 3 3 2 3 7 4 2 1 1 2 3 3 4 4 2 1 1 1 1 1 1 1 1 1 2 2 2 2 2 1 2 2 3 3 2 2 1 0 0 0 0 1 1 2 2 1
4 2 2 2 1 3 1 6 6 3 3 3 3 3 4 3 3 3 2 1 0 0 1 1 1 1 2 2 2 2 1 1 1 1 1 2 2 2 2 1 0 0 0 0 1 1 1 2 2
2 1 2 1 1 2 1 3 9 1 4 5 4 4 3 3 3 3 3 2 1 0 1 1 1 2 2 2 2 1 1 1 1 2 2 2 2 2 2 2 1 1 1 1 1 1 1 1 2
3 3 3 3 2 4 5 5 9 4 5 4 3 3 2 2 2 2 2 1 1 1 1 1 1 1 1 1 1 1 1 1 1 2 2 2 2 2 3 3 2 1 1 2 1 2 2 2 1
3 4 3 3 2 6 2 4 11 5 3 3 3 3 2 2 2 1 1 1 1 1 1 1 1 1 1 1 0 0 0 0 0 1 1 2 1 2 3 3 2 2 2 2 1 2 2 2 2
3 5 6 5 5 5 2 8 9 3 2 1 1 1 1 1 1 1 1 1 1 0 0 1 1 1 0 1 0 0 0 0 1 1 1 1 1 2 2 3 3 3 3 2 2 2 2 2 3
4 3 3 4 1 3 7 8 9 2 1 1 0 0 1 1 1 1 0 0 0 0 1 1 1 1 1 1 0 0 1 1 1 1 1 2 2 2 2 2 3 3 3 3 2 2 3 2 3
2 5 4 4 3 5 7 6 6 4 3 1 1 2 2 1 0 0 1 1 1 1 1 0 1 1 0 0 0 0 1 1 1 1 2 2 2 2 2 2 3 3 3 3 2 2 2 2 2
4 3 3 3 4 4 5 9 5 4 3 4 4 3 2 2 1 0 1 1 1 2 1 1 1 1 1 0 0 1 1 1 1 1 2 2 2 3 2 3 3 3 3 3 2 2 3 2 3
4 6 7 5 5 4 4 10 1 2 2 2 3 2 1 1 1 0 0 1 1 2 2 1 1 1 1 1 1 1 1 2 2 2 3 3 3 3 3 3 3 3 3 3 3 3 3 3 3
Wind_Direction
356 13 55 55 59 58 212 237 222 185 139 7 69 108 128 128 143 160 49 39 36 31 3 43 91 98 95 93 90 89 89 87 87 86 85 84 82 82 82 80 78 77 78 77 75 74 73 73 72
359 33 56 62 98 159 249 231 213 209 173 110 57 68 85 84 52 74 31 11 42 42 30 54 85 95 94 94 90 89 89 89 89 88 86 84 82 80 80 80 78 77 76 76 75 74 73 72 72
44 53 84 86 138 185 211 219 209 327 110 91 71 47 80 95 58 68 1 36 57 48 37 58 83 88 93 93 90 88 88 89 91 89 87 85 84 82 80 78 77 76 75 74 73 72 72 72 72
73 51 60 90 199 214 215 220 164 115 59 70 108 82 60 32 10 55 55 69 71 54 40 61 82 85 87 91 90 89 87 89 90 89 89 86 85 82 80 77 76 76 75 73 73 72 72 71 72
59 81 82 123 228 246 253 232 159 122 106 79 116 119 78 19 55 84 80 73 75 58 41 53 81 86 86 86 89 90 87 86 86 87 87 86 84 83 81 78 75 75 76 75 72 73 72 71 71
63 73 113 206 232 265 277 239 138 99 107 97 114 116 131 47 66 76 79 75 70 68 54 51 65 77 83 83 83 84 85 85 81 81 82 83 83 83 81 79 76 75 75 74 73 72 72 72 72
107 109 161 188 204 250 273 65 129 133 109 154 141 124 145 53 56 77 78 72 67 63 57 49 49 53 66 78 79 78 80 80 78 77 76 75 77 80 79 77 76 74 73 70 69 71 72 72 72
119 111 139 187 196 234 283 70 64 121 144 52 92 137 183 182 92 84 79 69 64 57 50 45 45 45 46 57 70 71 73 74 73 70 71 69 71 74 74 71 72 72 71 69 69 69 71 71 70
89 94 185 203 200 221 97 78 18 33 91 61 38 46 63 114 108 99 84 62 56 51 42 43 45 44 46 55 60 62 64 64 66 65 69 66 62 65 62 63 68 70 70 69 69 69 68 66 64
93 160 207 203 198 178 126 100 109 79 64 50 43 46 88 108 118 122 123 120 90 58 38 40 46 47 51 59 59 51 53 50 53 57 58 58 56 58 61 61 65 64 62 63 64 64 64 59 52
116 174 178 86 22 114 112 72 59 115 130 224 190 152 128 119 120 132 140 141 128 96 53 40 47 50 58 63 62 54 50 46 46 51 54 63 61 55 53 54 52 53 52 53 54 52 49 51 50
110 86 137 94 52 88 123 116 72 77 222 353 134 138 136 136 147 158 158 140 103 87 64 52 54 62 57 66 69 66 59 51 48 44 48 62 66 58 57 57 54 54 53 60 58 57 53 51 48
116 117 50 67 68 80 76 68 127 281 351 63 97 111 132 147 155 134 113 110 98 91 65 58 62 71 70 73 71 66 59 54 49 50 41 50 65 66 64 57 60 61 61 68 68 70 65 57 45
142 111 37 1 39 68 105 348 74 257 91 91 101 115 131 143 127 77 68 73 94 101 79 65 70 68 73 74 72 73 61 53 50 49 43 44 60 61 63 65 59 54 58 70 79 86 83 71 58
98 76 11 358 47 82 95 322 238 184 125 112 115 124 116 82 64 68 60 50 99 88 68 74 84 69 78 77 76 78 70 62 54 44 44 43 52 64 61 68 65 50 48 68 76 66 66 64 58
73 81 294 302 59 349 144 261 283 145 141 152 156 137 116 84 58 44 38 29 42 76 69 64 70 66 69 74 77 82 79 72 57 48 46 36 36 55 67 60 48 38 59 63 81 75 68 54 51
47 212 246 292 5 79 184 249 274 173 160 189 195 178 155 103 31 27 35 35 54 75 74 66 64 66 68 68 72 73 74 67 52 47 48 35 33 39 64 56 29 30 70 73 79 70 88 81 42
217 225 242 250 292 274 237 252 272 252 204 213 214 210 200 207 242 352 37 23 55 74 65 60 59 44 52 67 64 58 55 49 42 38 34 34 31 31 45 59 25 31 66 50 60 104 77 104 104
155 182 251 263 322 285 250 263 269 246 218 228 231 224 218 223 224 96 47 27 75 69 69 66 60 44 48 56 71 65 34 24 31 27 28 28 24 36 48 48 39 26 70 53 68 105 122 85 79
143 219 261 299 349 313 292 280 269 229 216 222 223 230 226 217 213 178 85 54 81 87 77 72 61 56 50 41 40 83 107 68 53 21 23 22 18 23 37 47 41 29 32 29 71 81 130 106 109
213 205 224 259 328 351 328 293 265 264 241 267 252 237 223 205 207 204 169 150 103 92 82 75 50 66 54 49 55 54 55 37 27 16 10 4 4 7 17 4 22 43 59 267 253 191 164 181 200
239 210 182 176 23 292 6 286 277 257 276 260 253 237 229 216 204 196 182 169 164 188 106 76 68 60 59 73 73 77 78 42 325 324 331 341 353 360 0 348 315 193 199 274 284 245 229 178 190
195 108 122 139 159 300 267 244 280 308 272 264 254 240 232 217 199 199 191 182 175 144 103 99 69 59 54 70 92 93 73 31 359 3 358 348 342 349 1 5 351 318 262 245 283 272 237 209 195
128 76 61 63 83 267 229 202 274 234 233 257 250 246 237 214 195 192 188 155 132 88 78 87 86 59 52 67 85 107 105 28 16 359 355 351 339 341 352 352 345 325 303 274 261 251 219 220 230
100 100 25 345 321 253 202 215 252 247 233 232 242 240 232 193 178 174 182 180 167 121 94 96 102 70 54 92 94 80 124 189 282 312 320 330 337 337 336 343 332 317 299 294 298 279 239 217 223
186 152 167 210 237 278 262 239 254 257 271 280 273 230 206 179 172 183 212 207 203 189 163 141 172 231 212 185 222 1 30 319 304 305 299 294 288 290 312 312 318 322 319 302 281 287 264 237 233
148 186 157 134 177 273 264 279 295 270 295 311 290 156 212 195 185 213 311 311 269 254 227 203 206 227 235 217 157 35 4 341 317 316 316 303 304 316 315 309 312 314 314 305 296 284 279 261 247
138 142 116 144 198 257 279 268 257 268 260 251 217 233 241 204 120 347 337 337 324 293 271 231 206 237 255 72 41 354 331 330 335 334 322 310 309 314 312 311 309 308 307 306 295 295 298 284 274
146 149 156 160 184 195 262 266 231 227 227 219 227 222 210 200 196 256 341 348 358 2 355 3 351 351 16 19 18 12 347 348 340 322 311 309 313 312 307 303 303 302 302 306 295 299 308 288 286
183 181 164 181 223 205 227 267 285 243 254 215 221 218 189 174 164 177 323 4 7 358 352 347 351 2 350 11 25 5 2 354 339 320 315 316 313 312 307 299 294 293 293 293 289 289 297 279 277